GFSNGP_700_spd_096.txt.gz
Wind_Speed
6 6 7 10 12 12 14 12 10 15 13 9 11 13 7 12 10 16 6 5 6 2 10 16 15 14 12 11 12 19 21 18 17 16 15 15 15 15 14 14 14 19 21 23
6 6 7 15 16 11 14 12 18 15 12 11 8 9 13 12 16 12 15 17 8 3 7 8 15 16 14 14 15 16 21 21 21 20 19 18 18 18 19 19 19 19 20 22
2 4 10 7 6 8 8 11 13 14 12 14 13 16 18 15 12 7 2 12 7 11 13 16 17 17 19 20 17 14 16 19 22 26 25 23 22 22 22 22 24 25 25 26
4 9 2 2 9 6 3 4 2 2 6 10 11 13 18 21 22 16 16 12 16 14 12 13 15 16 14 18 24 19 18 14 15 23 27 29 28 27 26 27 27 27 28 28
2 0 11 4 3 4 8 5 10 10 10 14 13 14 21 20 22 16 14 13 16 16 18 15 12 15 17 16 17 22 25 26 21 15 17 25 31 32 31 31 31 29 30 31
6 2 3 1 3 6 8 1 9 10 11 13 17 11 5 9 8 15 13 14 17 21 22 21 17 16 16 18 22 28 29 30 34 28 21 20 21 26 30 34 36 36 34 33
13 4 6 10 10 12 3 4 3 5 8 9 11 18 8 6 14 6 13 11 19 20 20 25 28 27 31 28 28 28 32 34 34 34 36 30 24 22 23 28 31 36 39 37
12 6 8 7 9 6 4 10 6 6 9 10 13 16 12 4 10 7 7 11 17 21 23 21 25 28 33 33 33 33 32 35 35 34 35 36 41 36 25 22 26 32 32 34
7 6 11 5 6 2 5 2 2 5 7 10 11 16 20 5 8 11 8 3 1 4 10 18 19 20 22 27 29 31 34 32 35 35 36 37 37 36 35 34 35 25 26 31
9 10 11 7 9 5 5 6 9 8 11 12 11 10 11 14 12 12 3 3 2 3 7 9 11 11 14 18 22 27 29 29 28 31 34 38 37 36 39 38 39 40 40 41
12 16 10 9 3 4 1 3 6 9 15 16 13 11 7 7 10 13 11 4 3 5 6 9 12 13 13 16 16 15 19 18 18 24 26 32 33 37 38 44 50 47 42 43
5 8 16 16 11 3 3 4 7 11 11 12 13 11 9 7 9 9 10 11 10 11 9 8 9 9 10 13 12 11 11 10 13 18 21 28 33 29 36 45 51 38 47 48
5 6 4 3 5 7 7 8 9 13 14 12 11 12 10 8 8 8 13 15 12 12 11 11 12 13 10 10 11 10 9 8 11 8 9 6 1 10 31 36 31 21 11 6
9 8 6 4 6 8 8 10 11 13 14 13 12 12 13 12 11 10 9 11 11 11 13 15 17 16 15 15 12 13 7 6 7 5 5 5 5 3 6 7 5 7 2 6
2 4 5 7 9 9 10 10 11 13 14 15 14 14 14 13 13 13 13 14 15 15 17 18 16 15 18 16 15 12 13 11 9 7 9 10 6 3 2 1 1 3 6 8
4 10 13 11 11 12 13 14 16 18 18 18 18 17 16 16 15 14 16 16 16 15 17 14 10 12 9 16 18 17 15 13 13 11 10 8 6 5 5 5 5 6 6 7
15 18 18 19 18 18 17 19 21 19 19 19 20 20 20 19 17 16 16 17 16 17 16 17 18 16 16 13 15 19 16 16 14 12 8 7 7 7 6 6 6 7 9 10
21 21 22 20 18 19 20 20 19 19 19 19 19 19 19 18 18 17 15 14 14 17 18 17 15 16 17 17 16 16 14 11 11 9 9 8 8 8 8 9 9 10 9 9
19 19 18 19 19 18 17 17 19 19 20 20 21 21 19 17 15 14 14 14 14 13 12 12 14 16 17 15 13 13 12 9 9 10 10 9 10 9 9 9 8 9 10 11
16 17 18 18 17 17 17 18 19 19 19 18 17 16 14 13 12 12 11 11 11 10 10 10 10 10 10 10 11 11 11 10 10 11 11 11 10 9 8 8 10 11 12 13
13 14 15 16 17 17 17 16 16 14 13 12 10 10 9 10 10 9 9 8 7 7 8 9 10 11 11 11 11 11 12 12 13 12 11 9 8 8 10 11 12 12 13 14
12 12 12 12 12 12 11 11 10 8 6 5 4 4 5 5 5 5 5 5 6 7 8 9 10 10 10 11 12 13 13 12 10 8 6 6 8 11 12 13 14 15 15 16
9 9 8 6 5 4 3 3 3 2 1 1 1 1 2 2 3 4 4 5 6 7 8 9 9 10 11 12 12 11 9 5 4 6 8 10 11 13 13 13 14 15 16 17
5 5 3 3 3 3 4 5 4 4 3 2 2 2 2 2 2 3 4 4 5 7 8 9 10 10 10 8 7 5 4 6 9 11 12 12 13 14 14 15 15 17 18 18
1 1 2 3 4 5 5 4 4 3 2 1 0 1 2 3 4 5 6 7 8 9 9 10 10 9 7 5 5 7 9 10 11 12 13 13 14 14 15 15 16 16 17 18
1 1 1 2 2 1 0 2 3 4 4 5 5 6 6 7 7 8 8 8 8 7 6 5 5 6 7 8 9 10 11 11 12 12 14 14 15 15 16 16 17 18 19 19
2 2 3 3 4 5 6 6 7 8 8 8 8 8 8 8 7 7 6 5 5 6 7 8 9 10 10 11 11 12 12 12 13 13 14 15 16 16 16 17 18 19 19 21

GFSNGP_700_spd_099.txt.gz
Wind_Speed
7 6 6 14 8 11 9 1 4 7 11 11 12 13 14 17 20 24 7 12 8 5 18 22 27 29 28 20 17 15 15 16 15 14 13 12 13 13 11 11 12 13 15 16
3 5 5 8 11 12 13 10 10 16 17 11 12 6 9 11 13 18 11 15 14 3 11 15 15 20 24 22 18 16 15 14 15 17 15 15 16 16 17 15 15 15 16 17
3 2 4 2 1 3 9 11 10 13 14 14 14 12 11 12 13 13 12 17 15 7 6 7 10 14 17 18 18 16 13 13 15 15 17 18 18 19 20 21 21 20 19 19
7 7 1 4 6 3 7 5 7 7 5 2 2 2 8 11 12 8 8 10 11 14 6 8 8 8 10 11 11 15 12 14 13 14 16 19 20 22 23 25 26 26 25 24
2 4 4 12 9 6 4 8 4 5 1 1 6 10 13 11 7 8 10 13 13 12 11 8 10 11 13 13 13 14 14 19 19 23 19 18 19 23 27 28 29 29 29 30
5 4 3 7 6 3 5 5 8 3 3 5 4 8 10 10 9 11 9 14 17 17 14 12 10 14 15 14 14 13 17 19 20 21 23 29 28 23 21 25 30 32 33 34
14 7 5 8 8 5 4 3 1 1 3 6 10 12 18 10 11 12 12 16 17 14 17 19 20 18 20 22 23 23 25 25 27 29 30 30 32 35 32 23 24 26 32 34
17 8 7 7 4 2 2 6 4 1 4 7 8 11 13 10 9 8 17 10 14 13 15 19 21 24 28 27 29 34 34 37 32 31 33 32 32 33 37 37 36 36 32 36
10 6 5 5 3 1 6 6 4 1 3 7 10 9 8 11 9 3 2 5 6 5 8 9 11 15 18 23 29 31 30 30 30 33 36 35 31 33 33 36 39 44 44 52
9 6 10 7 5 6 4 3 5 7 7 9 12 11 9 9 10 10 4 4 3 2 1 1 3 6 7 6 10 12 16 21 23 24 29 33 31 26 28 31 34 43 42 41
15 12 16 13 8 9 6 2 1 3 5 7 10 11 9 9 8 5 3 2 2 3 4 4 5 8 9 10 12 13 12 11 11 16 16 22 26 28 24 24 33 37 39 49
2 8 14 12 10 8 5 3 3 5 7 7 8 9 9 9 9 8 8 6 5 8 9 8 7 9 11 11 10 11 11 10 10 8 8 13 18 23 25 28 32 33 35 35
1 5 8 7 6 4 4 7 6 7 10 9 8 8 8 7 8 9 9 11 12 12 13 12 9 11 12 10 11 12 12 12 11 10 9 9 11 10 12 18 23 24 26 22
6 8 7 5 4 6 7 8 9 9 9 9 9 10 10 9 9 9 10 10 11 10 10 13 14 14 14 15 14 12 9 10 13 12 11 10 10 8 6 4 3 4 3 1
6 5 4 5 8 9 10 10 10 10 13 14 12 11 11 11 11 11 11 13 13 13 14 12 12 12 14 13 10 11 11 14 12 12 11 11 7 6 5 4 3 3 3 5
6 5 7 11 12 12 13 16 16 16 18 17 15 14 14 13 13 13 13 14 14 13 13 17 17 13 11 10 13 14 13 14 17 14 13 11 8 5 4 5 5 4 4 6
11 13 15 18 17 18 18 19 19 19 20 18 17 17 16 15 16 16 16 16 16 16 15 16 17 16 16 15 15 14 15 15 13 13 11 9 7 6 5 6 6 6 8 9
21 21 20 21 21 20 18 18 18 19 18 16 16 17 17 17 17 17 16 15 15 14 13 13 15 15 15 16 15 16 16 15 13 12 10 9 8 9 8 8 9 10 12 12
21 20 20 19 20 20 20 19 19 17 16 17 17 18 17 17 16 16 16 16 16 16 16 15 15 14 14 14 15 15 14 13 12 12 11 11 11 11 11 11 12 11 10 9
18 17 16 16 17 17 18 18 17 17 17 16 16 16 15 14 14 13 13 13 14 14 14 13 13 12 12 12 12 12 13 13 14 14 13 13 14 14 14 12 10 9 10 12
16 15 15 14 14 15 16 16 16 15 15 14 13 13 12 11 10 11 11 11 11 11 10 10 10 11 11 12 13 12 13 14 14 15 15 15 14 13 11 10 9 10 12 14
13 12 12 12 12 11 11 12 11 11 10 10 9 9 8 8 8 7 7 8 8 7 8 9 9 10 10 11 12 12 13 14 15 15 13 11 9 7 8 10 12 13 15 16
10 9 8 7 7 6 5 5 5 5 5 5 4 5 5 6 6 5 6 6 6 7 8 8 9 9 10 11 11 12 12 12 11 10 8 7 7 9 12 13 14 15 16 17
5 5 4 3 2 1 1 0 0 1 1 1 1 2 2 2 3 3 4 5 5 6 7 8 9 10 10 10 10 10 8 7 7 7 8 9 11 13 15 16 16 17 17 18
1 1 0 1 1 1 1 1 1 1 1 1 2 3 4 5 5 6 7 8 8 9 10 10 10 10 10 9 8 7 7 8 9 10 12 14 15 16 16 17 17 18 18 19
1 1 2 2 2 1 2 4 4 5 6 6 7 7 8 9 9 9 9 9 9 9 9 9 8 7 7 7 8 9 11 12 13 14 14 15 15 16 16 17 17 17 18 19
4 5 5 5 6 6 7 8 9 9 9 9 10 10 10 10 10 9 9 8 8 7 7 8 9 10 10 11 12 12 13 13 14 15 15 15 16 16 17 17 17 18 19 20

GFSNGP_700_spd_102.txt.gz
Wind_Speed
5 13 7 10 13 13 7 3 7 8 12 15 15 15 17 18 19 21 27 27 27 13 14 9 22 31 31 27 23 20 18 13 13 12 11 9 8 8 8 8 8 10 11 15
3 2 4 11 12 15 13 16 22 20 23 19 19 14 13 14 16 21 27 31 25 23 8 15 21 25 22 24 22 21 19 16 13 12 12 11 11 11 11 12 11 11 11 12
3 2 9 12 11 10 14 19 17 17 17 15 14 17 19 19 18 20 21 29 25 21 7 6 8 13 20 23 26 18 15 14 12 10 7 7 10 13 14 15 15 15 14 14
5 9 2 3 6 10 10 8 9 9 7 4 8 7 6 10 10 11 14 18 20 19 12 4 7 12 11 11 12 13 20 15 11 9 6 5 7 8 12 17 20 20 20 20
3 4 8 9 7 6 4 4 4 9 4 4 7 12 13 15 17 13 10 11 12 10 12 3 5 7 6 3 7 6 6 6 9 23 19 13 9 9 9 14 17 20 24 25
1 2 3 3 5 1 3 5 4 1 1 2 3 3 9 12 11 12 11 8 10 9 10 10 3 2 4 4 5 4 8 10 13 15 19 19 19 24 27 23 21 25 29 29
15 4 8 9 9 4 4 3 3 3 3 6 2 5 10 12 14 11 14 10 12 10 12 12 11 8 8 10 12 13 13 16 16 17 17 20 23 24 27 29 30 30 29 31
14 7 9 11 8 9 7 9 5 3 1 3 7 8 9 10 13 13 9 14 16 12 11 11 10 12 15 18 19 21 23 26 29 31 32 32 31 30 30 32 32 34 35 34
12 11 13 7 6 8 8 6 5 2 2 4 6 9 10 10 11 14 5 1 5 8 4 2 7 12 13 15 18 22 23 25 30 32 31 30 33 34 33 32 33 33 34 37
18 14 12 9 8 10 9 5 6 7 8 10 8 9 9 8 6 10 6 9 10 9 7 7 5 5 4 4 6 7 8 11 15 23 28 30 30 29 27 29 33 32 32 34
15 14 18 13 10 11 10 5 2 2 4 5 6 7 8 8 6 3 6 3 2 3 1 3 4 5 6 4 4 6 7 7 7 7 8 12 14 17 19 20 21 26 32 34
1 9 10 14 12 11 9 6 4 5 8 9 8 7 8 8 6 4 6 6 6 7 7 7 7 5 5 5 5 5 7 8 7 9 8 7 9 10 14 17 18 22 23 24
5 4 6 6 5 6 8 5 5 5 8 10 9 9 8 9 8 6 5 8 8 9 12 13 13 11 10 9 8 9 10 9 8 8 9 8 8 8 6 4 3 6 12 12
4 3 4 5 3 4 5 7 7 7 8 9 11 11 10 11 10 10 8 8 9 9 8 10 14 14 14 14 14 11 9 8 8 9 8 9 8 6 5 4 3 2 2 2
7 5 7 6 6 6 7 8 9 10 11 12 13 13 13 14 13 12 11 10 9 9 11 12 12 10 10 11 11 11 11 10 12 11 11 11 9 7 6 5 3 3 2 1
8 8 7 9 11 12 11 12 14 16 17 17 17 16 14 15 16 15 15 14 13 13 13 12 12 13 13 14 12 14 17 16 14 13 12 11 9 7 5 4 4 4 4 4
7 10 13 15 17 18 18 17 19 19 20 19 18 16 16 15 16 15 14 15 15 15 15 13 14 15 15 14 14 14 13 12 12 11 10 9 7 6 7 6 7 7 7 8
16 18 18 20 21 20 20 21 20 18 18 18 18 18 17 17 16 16 15 15 15 15 14 14 14 14 14 14 14 13 13 12 12 11 10 10 9 10 10 10 10 10 11 11
19 21 21 20 21 22 22 22 22 22 22 20 19 20 19 19 17 16 15 14 14 14 15 15 14 14 14 14 13 13 12 12 12 12 12 12 12 12 12 12 12 12 12 12
17 17 16 17 17 17 19 20 20 20 20 20 20 20 19 19 17 15 14 13 12 12 12 12 12 12 12 11 11 11 11 11 11 12 13 13 14 14 14 14 14 12 10 9
16 15 17 17 17 17 18 18 18 18 18 18 18 18 16 15 14 13 11 11 11 11 11 11 10 10 11 11 11 11 11 11 12 13 13 14 14 14 14 13 11 9 8 8
14 13 13 12 13 13 14 14 14 14 14 14 13 12 11 11 10 9 9 9 9 9 10 10 9 9 10 10 11 11 12 12 13 13 13 13 12 11 10 8 8 8 9 12
10 9 8 8 8 9 9 9 9 9 9 8 8 7 7 7 7 7 7 8 9 9 9 9 9 9 10 10 10 11 11 11 11 11 10 10 9 8 8 8 10 12 13 14
7 7 6 6 6 6 6 5 4 4 4 3 4 4 4 5 6 6 7 7 8 8 8 8 9 9 9 9 10 10 10 10 10 9 9 9 9 10 11 13 14 15 15 15
4 4 4 4 4 4 3 2 2 3 3 4 5 5 6 6 7 7 8 8 9 9 9 9 9 10 10 10 10 9 9 8 8 8 9 11 12 13 14 14 14 15 16 16
4 4 5 5 5 4 4 5 6 6 7 7 8 8 9 9 9 9 10 10 9 9 9 9 9 9 8 8 8 8 9 10 11 12 12 13 13 14 14 15 16 16 17 17
7 7 7 8 8 8 8 8 9 9 9 9 10 10 10 10 10 10 10 10 10 9 8 8 8 9 10 11 11 12 13 14 13 13 14 14 15 15 15 16 16 16 17 18

GFSNGP_700_spd_108.txt.gz
Wind_Speed
7 7 8 6 8 11 13 15 10 6 7 4 5 8 17 21 22 26 25 30 30 32 23 27 17 16 24 22 32 30 36 41 37 30 27 26 25 22 18 15 12 10 9 9
6 8 8 11 13 14 13 11 11 9 10 11 11 20 19 20 23 26 22 23 26 29 24 25 14 12 21 16 15 19 37 39 34 29 27 28 27 24 20 18 16 13 11 10
1 3 5 10 16 16 13 11 9 10 9 16 12 18 19 19 19 19 23 29 25 26 24 23 9 18 15 20 19 29 41 36 29 27 27 28 27 24 21 19 17 15 14 12
2 3 5 2 5 11 12 7 3 7 8 11 14 14 14 17 20 25 27 27 19 21 21 22 19 17 18 21 27 27 32 31 28 26 25 27 28 25 22 20 17 16 15 13
3 6 4 4 4 8 9 4 5 7 5 6 14 10 13 17 21 25 24 19 17 15 19 24 18 19 34 31 28 31 33 31 27 26 26 25 25 22 18 17 16 16 16 16
3 4 2 2 2 9 5 4 4 5 4 6 6 6 12 15 14 17 19 16 14 12 16 20 15 10 23 29 28 31 33 28 27 28 29 25 24 19 13 12 14 14 14 14
11 6 3 5 7 3 5 4 6 5 2 3 5 6 8 10 12 15 18 13 12 13 8 13 16 9 8 26 27 23 23 21 18 30 30 29 27 28 25 22 22 20 19 21
4 4 4 5 4 4 2 2 5 3 3 6 6 7 10 11 10 11 11 6 4 4 5 8 7 7 5 13 13 17 28 22 21 17 18 18 18 22 31 29 29 26 24 23
4 4 11 8 5 5 6 5 5 6 5 7 8 10 12 11 8 8 4 4 10 10 7 1 7 6 9 9 6 12 14 16 17 19 21 23 24 25 26 26 27 28 29 28
8 8 16 10 4 5 6 6 6 5 6 10 11 10 9 9 8 3 7 4 2 4 7 9 10 12 14 11 9 9 10 7 7 9 13 17 21 25 27 28 28 28 27 27
8 10 11 11 9 7 6 7 8 7 2 5 7 7 8 8 8 6 4 6 4 2 1 2 3 5 6 6 9 8 9 7 7 6 3 2 2 4 9 14 17 18 19 21
7 9 10 10 11 12 10 9 10 6 4 6 8 8 8 8 8 8 8 6 6 5 6 7 7 4 2 2 3 2 3 4 4 4 4 4 4 3 1 2 6 11 13 14
4 2 4 6 8 8 8 7 6 3 3 6 7 9 10 10 9 8 10 10 8 6 7 6 7 7 9 8 5 4 3 4 5 5 5 5 4 3 2 1 1 1 5 7
3 2 2 4 4 5 4 5 6 3 5 8 8 9 10 12 12 11 10 11 10 9 8 9 9 10 9 7 8 9 5 5 3 3 3 3 4 4 4 3 3 3 4 5
9 7 6 8 7 4 3 4 5 6 8 10 12 12 13 13 13 13 13 13 13 12 11 10 10 11 11 10 9 9 8 5 4 5 5 5 6 6 6 6 5 5 5 5
10 10 10 9 6 6 7 9 10 10 11 13 14 14 13 13 14 14 14 14 13 14 13 12 12 12 12 12 10 9 10 10 8 5 5 5 5 5 6 7 7 8 7 7
13 10 9 9 10 11 14 16 16 15 14 14 14 13 13 13 13 14 14 14 14 14 14 14 12 12 11 12 11 11 10 8 7 7 6 6 6 6 7 8 8 8 8 8
19 16 15 16 18 18 19 19 17 18 17 17 17 16 15 15 15 15 15 14 14 14 14 15 14 14 13 12 12 12 11 10 9 9 9 9 8 8 8 9 9 10 11 11
19 18 18 19 19 18 18 18 17 17 17 16 16 16 16 15 14 15 16 16 15 14 14 13 13 14 14 14 13 13 13 12 12 11 11 11 11 11 12 12 12 13 13 14
18 18 18 18 19 19 18 18 18 18 17 17 16 15 15 15 14 14 14 16 16 14 12 12 11 11 11 12 12 13 13 13 13 12 12 13 13 13 14 14 15 16 16 16
16 17 18 19 19 19 19 19 17 16 16 16 14 13 13 13 12 12 12 13 13 13 12 12 11 10 10 11 11 11 12 13 13 13 14 15 15 15 15 15 15 15 15 15
16 16 17 17 16 15 14 14 13 13 13 12 10 9 9 9 10 10 10 10 10 10 10 11 11 11 11 11 11 12 12 13 13 14 14 14 14 14 14 14 14 13 13 13
12 12 12 12 12 11 11 10 10 10 10 9 8 7 7 7 7 8 8 9 9 9 9 9 10 11 11 12 12 12 12 12 12 13 13 13 13 13 13 13 12 12 12 13
9 8 8 8 8 8 8 7 7 6 6 5 5 5 5 6 6 7 7 7 7 8 8 9 9 10 10 10 11 11 11 11 11 11 11 12 12 12 12 12 13 13 14 14
6 6 6 6 6 6 6 6 7 7 7 7 7 8 8 8 8 8 8 8 8 9 9 9 10 10 10 10 10 10 10 11 11 11 12 12 12 12 12 13 14 14 15 15
8 7 7 7 8 8 8 9 9 9 9 10 10 10 10 10 10 10 10 10 9 10 10 10 10 10 10 10 10 10 10 10 11 11 11 12 12 13 14 14 15 15 15 16
9 10 10 11 11 12 12 12 12 12 12 12 12 12 12 12 12 11 11 11 11 10 10 10 10 10 10 11 11 11 12 12 13 14 14 14 15 15 15 16 16 16 17 17

GFSNGP_700_spd_111.txt.gz
Wind_Speed
5 10 2 6 13 14 17 17 14 8 10 12 6 8 14 18 18 20 21 21 22 25 26 26 28 29 23 21 24 24 26 34 34 38 43 40 34 31 29 23 21 19 16 12
9 7 6 7 8 10 13 14 15 16 12 2 11 20 19 17 17 19 19 22 25 28 27 26 28 27 22 21 24 27 28 35 38 41 44 39 34 32 29 24 22 19 15 11
3 2 4 10 14 15 13 13 13 17 9 2 11 16 20 16 15 20 22 26 27 25 24 25 27 23 22 19 22 26 28 31 36 42 43 37 33 32 29 25 24 20 17 13
7 2 5 2 2 8 11 8 5 5 4 4 14 15 11 13 17 20 24 25 25 20 20 23 26 28 23 24 23 20 21 28 36 41 36 29 32 32 29 27 26 23 21 17
5 7 7 4 1 3 5 10 10 8 6 2 9 10 8 12 17 21 23 25 23 17 20 20 24 27 20 26 26 27 25 28 32 33 33 36 33 32 30 28 26 24 23 22
6 5 2 10 2 13 7 4 3 10 7 7 9 8 12 12 15 18 20 20 17 16 17 17 23 22 18 18 29 29 31 31 36 38 35 32 31 32 30 29 28 25 23 22
12 9 2 11 10 5 5 3 6 7 4 3 5 7 8 11 13 15 16 14 14 14 14 15 18 16 11 3 20 31 31 39 37 38 35 32 26 26 26 23 19 19 17 17
5 6 3 8 7 4 7 3 4 3 3 6 7 8 10 13 13 11 9 10 10 12 13 11 13 13 12 6 7 12 20 25 24 34 31 27 33 32 26 21 27 18 18 20
6 9 12 13 10 6 7 6 5 5 5 6 8 10 12 12 13 9 9 8 8 8 10 13 14 14 14 16 12 8 20 21 11 15 16 20 26 23 25 34 32 29 28 28
11 9 11 11 10 7 9 8 6 6 6 7 7 8 9 9 10 10 7 10 9 5 7 8 10 14 17 20 19 17 17 12 4 17 23 21 23 23 24 24 25 28 28 27
14 10 11 11 10 9 8 5 7 9 7 5 7 8 8 8 8 10 10 7 7 9 7 9 8 9 10 12 13 14 14 14 10 6 2 1 10 19 24 26 26 25 25 24
11 14 13 13 11 8 9 10 9 10 9 6 7 7 7 8 9 9 10 10 8 7 8 9 10 9 6 5 6 5 5 5 6 6 5 4 5 3 4 7 9 11 13 14
15 11 6 7 8 9 8 7 7 9 8 7 6 7 7 8 9 9 10 11 11 10 9 8 10 9 9 6 4 2 2 1 2 1 2 2 1 2 4 5 7 11 12 12
12 8 5 4 5 6 6 6 7 8 9 7 8 9 10 11 10 10 9 9 10 10 11 10 9 10 9 7 8 7 3 1 2 1 2 3 2 3 3 4 5 5 6 6
8 9 8 8 8 8 6 4 3 4 6 9 10 11 12 13 13 11 10 10 9 9 10 10 11 10 10 9 8 8 7 5 4 3 2 3 3 3 2 3 3 4 4 5
13 12 12 9 8 6 6 6 7 8 10 12 13 13 13 12 12 11 11 10 9 9 9 8 9 10 11 10 7 6 6 7 6 4 4 4 4 4 4 4 4 4 4 4
18 16 15 12 9 10 13 13 14 14 13 14 14 15 15 16 16 15 13 12 11 11 10 10 9 8 9 9 9 9 8 8 7 6 6 6 6 6 6 6 6 6 7 7
21 20 17 17 18 16 15 15 14 15 15 16 16 16 16 16 17 17 16 15 14 12 12 11 10 9 9 10 10 9 9 9 9 10 10 10 10 10 10 11 11 11 11 11
17 17 17 17 17 16 16 16 16 15 15 16 16 16 15 14 15 15 15 15 15 15 13 11 11 10 11 11 11 11 11 11 11 12 12 13 13 13 14 14 14 14 14 14
14 16 18 18 18 17 18 18 18 18 18 18 18 18 17 17 17 16 16 15 15 14 14 13 12 10 9 10 10 11 11 11 12 13 13 14 15 15 15 16 16 17 17 17
14 14 16 18 19 20 20 19 18 18 17 17 16 16 15 15 16 16 15 14 14 13 13 12 12 12 12 12 12 13 13 13 14 15 15 15 16 16 17 17 18 18 18 18
15 15 15 16 16 16 16 16 16 16 15 15 14 13 12 12 13 13 12 13 12 12 11 11 11 11 12 13 14 15 15 16 16 16 17 17 17 18 18 18 18 18 17 17
12 12 12 12 12 11 11 11 11 11 12 12 12 11 11 11 11 10 10 11 11 11 11 11 11 12 12 12 13 14 14 15 15 16 17 17 17 17 17 17 17 16 16 16
11 10 10 10 9 9 9 8 8 8 8 8 8 9 9 9 9 10 10 10 10 11 11 11 11 11 11 12 12 13 13 14 14 14 15 15 15 15 15 15 15 15 16 16
9 9 10 10 10 9 9 9 9 9 10 10 10 10 10 10 11 11 11 11 11 11 11 11 11 11 12 12 12 13 13 13 14 14 14 14 14 15 15 15 15 15 15 16
10 10 10 10 11 11 11 11 12 12 12 12 12 12 12 12 13 13 13 12 12 12 12 12 12 12 12 12 12 12 13 13 13 13 14 14 14 14 15 15 16 16 17 17
10 11 11 12 12 13 13 14 14 14 14 14 14 14 14 14 14 14 14 13 14 13 13 13 13 13 13 13 14 14 14 14 14 15 15 15 16 16 16 17 17 17 18 18

GFSNGP_700_spd_114.txt.gz
Wind_Speed
19 13 13 5 9 7 21 16 13 9 4 9 22 20 9 12 14 17 20 20 22 25 27 28 30 28 30 34 29 29 28 24 28 32 35 38 43 44 36 34 29 24 22 19
18 9 3 4 10 10 7 14 8 7 7 5 10 6 6 16 16 18 20 19 22 25 26 26 25 25 29 30 30 24 28 23 26 28 32 39 44 43 37 33 28 25 21 18
5 12 8 3 5 5 6 2 4 3 4 10 3 8 13 13 14 16 16 19 21 23 23 21 21 24 28 26 26 23 28 25 24 26 34 42 42 42 39 32 28 26 22 20
9 9 1 5 3 4 5 4 3 8 6 1 6 12 14 12 12 16 18 20 22 24 23 19 18 23 28 30 27 19 25 24 22 26 34 40 40 43 38 32 29 27 24 22
6 11 5 15 16 9 5 4 3 4 7 7 10 11 8 11 14 17 18 20 20 21 20 21 22 25 33 34 29 22 26 27 26 28 33 36 40 39 33 31 30 29 28 26
12 6 3 11 12 11 6 1 4 1 4 6 8 6 10 11 14 15 16 15 15 17 19 22 22 23 29 30 22 18 26 25 29 32 34 32 34 34 33 32 31 30 28 26
11 7 2 13 11 6 2 7 8 3 4 0 3 4 7 10 13 13 10 10 13 16 20 23 23 23 23 19 14 8 23 29 29 33 36 36 34 31 30 32 31 29 28 26
10 5 1 14 7 6 5 12 12 8 5 4 4 5 8 10 10 10 10 12 13 15 17 20 21 21 19 19 10 13 3 16 30 37 38 40 36 38 35 34 30 28 26 25
6 7 10 13 10 2 5 9 12 9 7 6 7 7 8 8 9 9 8 10 14 12 14 15 15 17 21 22 24 23 16 3 7 16 24 39 38 39 37 28 26 24 23 20
8 10 12 11 8 6 8 11 10 7 6 6 6 7 7 8 9 10 10 7 8 13 13 15 15 14 14 18 21 23 24 20 15 6 7 19 21 29 35 35 28 24 23 26
9 14 18 12 9 9 9 9 7 9 9 6 6 6 7 7 8 10 10 9 7 6 10 13 13 16 17 14 13 14 17 21 18 15 19 14 4 8 11 11 15 22 34 34
12 16 16 11 9 10 10 10 10 11 11 9 6 7 7 7 9 9 10 9 8 8 8 9 12 15 16 15 14 11 11 8 13 14 13 11 11 9 7 3 4 8 12 15
15 16 12 9 8 7 8 9 10 10 10 9 6 7 8 8 9 10 11 11 10 9 8 9 10 11 11 12 13 11 9 7 5 7 6 7 8 7 5 5 4 6 6 9
15 11 10 10 9 9 9 9 8 9 10 9 8 8 10 11 11 11 11 11 12 11 9 9 9 9 10 9 10 10 8 7 7 6 5 6 6 4 2 2 3 4 6 8
15 15 14 12 11 10 10 9 9 8 7 6 7 10 11 11 11 11 11 10 10 11 10 9 9 9 8 8 8 7 7 7 5 2 2 2 2 1 0 1 2 3 4 5
21 17 13 14 12 7 7 9 11 10 10 10 12 12 11 11 12 11 12 12 11 10 10 9 8 8 8 7 6 5 6 6 5 3 2 2 1 1 2 2 3 4 5 5
22 21 16 16 14 14 14 13 12 13 13 14 13 13 13 13 13 13 13 13 12 12 12 11 9 8 8 8 8 8 7 6 6 4 4 3 3 3 4 4 5 6 6 7
19 18 17 15 16 16 13 14 13 12 14 13 12 12 12 13 13 13 13 13 13 13 12 12 12 10 9 8 8 9 9 9 9 8 8 7 7 8 8 8 8 8 9 9
14 15 15 14 14 14 14 14 14 14 15 15 15 15 15 14 15 16 15 15 14 13 13 12 11 11 10 10 9 9 9 10 10 11 11 11 11 11 11 12 12 12 13 13
15 14 14 14 14 14 14 14 15 16 16 16 16 15 15 15 15 15 16 16 15 14 13 13 12 11 11 11 11 11 11 10 10 11 12 13 14 14 14 15 15 15 15 15
15 15 14 14 14 14 14 15 14 14 14 13 13 13 14 15 15 16 15 15 14 13 13 13 12 13 12 12 12 12 12 12 12 13 13 14 14 15 15 16 16 16 17 17
13 13 13 13 13 12 13 13 13 12 12 12 11 11 11 12 13 13 13 13 14 13 12 12 13 13 13 13 13 13 13 14 14 15 15 16 16 16 16 17 17 17 17 17
11 11 11 11 11 11 11 11 11 10 10 10 10 10 10 10 11 10 11 12 12 12 12 12 12 12 13 13 13 14 14 14 14 14 15 15 15 15 16 16 15 15 15 16
11 12 12 12 11 11 12 12 11 11 11 11 11 11 12 11 11 11 11 11 11 11 11 12 12 12 12 13 13 13 14 14 14 15 15 15 14 14 14 14 14 14 14 15
11 11 12 12 12 12 12 12 12 12 12 12 12 12 13 13 13 13 12 12 12 12 12 12 12 12 12 13 13 13 14 14 14 14 14 14 14 14 14 14 14 15 14 14
11 11 12 12 13 13 13 14 14 14 15 14 14 15 14 15 15 14 14 14 14 14 13 14 13 13 13 13 13 13 13 13 13 13 13 13 13 13 14 14 14 15 15 16
12 12 13 12 12 12 13 14 15 15 15 15 14 14 14 14 14 14 14 14 14 14 14 14 14 14 14 14 14 13 14 14 14 14 14 14 14 15 15 15 16 16 16 17

GFSNGP_700_spd_117.txt.gz
Wind_Speed
16 17 18 4 8 4 10 5 9 4 5 3 7 8 14 11 2 8 11 17 23 25 27 29 30 29 30 31 32 32 32 31 29 29 25 32 37 35 34 33 45 37 35 30
14 13 4 11 0 8 5 5 6 3 10 10 10 7 4 5 11 15 20 21 23 23 25 27 28 28 28 26 26 30 31 27 28 22 24 26 30 33 35 42 45 37 34 30
7 14 9 12 11 7 18 10 1 4 6 5 10 7 7 3 10 13 12 12 16 18 21 25 27 26 24 24 27 29 29 27 23 23 23 25 27 33 40 41 43 38 31 29
10 19 3 11 20 20 21 24 23 13 9 5 11 9 8 5 8 10 12 13 15 16 18 21 22 21 22 24 27 28 28 24 19 27 23 24 24 31 38 39 36 39 32 31
6 14 3 22 16 14 16 18 15 13 8 6 7 7 4 7 8 10 11 13 14 15 18 20 22 23 26 27 28 28 26 20 24 28 26 25 26 37 37 36 40 36 35 32
9 4 4 17 10 4 6 15 13 6 5 5 5 6 6 8 10 12 11 12 14 15 18 21 24 25 26 29 26 27 24 18 27 27 29 29 33 27 35 41 40 35 35 32
9 2 3 19 15 4 5 7 15 15 9 4 2 4 6 9 10 11 12 12 15 15 16 18 20 24 25 26 26 20 19 15 24 28 29 34 31 33 33 34 33 34 33 32
8 7 4 19 13 11 6 5 10 15 10 7 6 6 7 9 10 10 10 10 12 13 14 16 18 19 21 25 26 29 16 13 12 25 30 34 39 34 36 32 36 33 38 33
7 3 11 14 7 2 5 9 10 10 10 7 8 7 7 8 9 9 10 7 8 10 11 15 16 19 20 19 21 26 27 22 13 6 27 38 41 40 37 36 33 32 31 30
4 8 11 10 7 6 9 11 11 9 8 9 8 8 8 8 9 9 9 9 8 10 11 13 15 17 20 18 18 17 21 24 23 16 1 26 38 39 38 36 35 32 32 33
5 9 13 10 10 8 6 8 9 7 9 10 11 10 8 8 8 9 9 9 10 10 12 13 15 15 15 14 16 16 15 17 17 20 21 10 13 23 33 37 31 31 29 34
6 9 9 9 8 7 6 7 9 11 10 10 9 8 6 8 8 9 10 10 10 11 12 12 13 13 13 13 14 10 14 15 14 14 13 16 12 16 10 13 14 16 18 20
11 12 11 10 9 8 8 7 9 11 11 10 9 9 6 9 9 10 11 11 11 11 12 13 13 12 12 12 11 10 9 8 10 12 12 12 10 9 7 8 9 10 11 9
11 13 15 16 12 11 11 11 10 11 10 10 10 10 7 9 9 10 9 12 12 12 11 11 12 12 12 10 9 8 7 7 6 7 7 7 7 7 6 4 4 2 5 6
12 14 14 13 12 12 10 10 10 10 9 8 7 7 8 10 9 9 8 9 11 13 12 12 12 11 11 10 9 8 7 7 5 4 4 5 5 6 7 7 7 6 5 5
18 19 17 14 12 11 9 11 12 11 11 10 10 10 11 12 11 11 10 11 11 12 12 12 13 13 11 9 8 7 7 6 5 4 3 3 3 3 3 3 3 3 3 2
20 19 19 17 14 13 12 12 12 13 12 12 13 12 11 13 13 12 12 11 11 11 12 12 12 12 13 12 10 8 8 5 4 4 3 3 3 2 2 1 1 1 2 3
15 16 16 16 16 13 11 13 13 13 13 12 13 13 12 14 14 14 13 12 11 11 11 11 12 12 12 12 13 11 9 8 6 5 4 5 5 5 5 5 5 5 5 6
12 12 14 14 14 14 14 14 14 14 15 15 15 16 16 16 16 15 15 14 13 12 12 12 12 12 13 13 12 12 12 11 10 10 9 8 8 8 9 9 9 9 9 9
11 11 12 12 13 14 14 15 16 16 17 17 16 16 16 16 14 14 14 13 13 13 12 11 11 11 11 11 12 12 12 12 12 12 12 11 11 12 13 12 12 11 11 11
11 10 11 11 11 12 12 12 12 13 14 14 14 14 14 14 13 10 11 11 12 12 12 11 11 11 12 12 11 11 12 13 13 13 13 13 13 13 13 14 14 13 13 12
11 11 11 10 10 10 10 10 10 10 10 10 11 11 12 12 12 12 10 10 10 11 11 11 12 12 12 12 12 12 12 12 13 13 14 15 15 14 14 14 14 14 13 13
8 9 9 9 10 10 11 11 11 11 10 11 11 11 11 11 10 11 11 10 10 10 10 10 11 11 11 12 12 12 13 13 13 13 13 13 13 13 14 14 14 14 14 13
10 10 11 11 10 10 11 11 11 11 12 12 12 12 12 10 11 11 11 11 11 10 10 10 11 11 11 12 12 12 12 12 12 12 12 11 11 12 12 12 13 13 13 13
11 12 12 13 13 14 14 13 13 12 11 12 13 13 14 14 14 14 14 13 12 12 12 11 11 11 11 11 12 12 12 12 12 12 12 11 12 12 12 12 12 12 13 13
12 12 13 15 16 16 16 16 15 16 16 14 14 14 14 14 13 14 14 14 13 13 14 13 12 12 12 11 11 11 12 11 12 12 12 12 12 13 12 13 13 13 13 13
9 10 10 10 12 14 15 17 17 16 17 16 15 15 14 14 15 15 14 14 13 12 12 13 12 12 12 11 11 12 12 12 13 13 13 13 14 14 15 15 15 15 15 15

GFSNGP_700_spd_120.txt.gz
Wind_Speed
19 15 19 13 10 11 4 3 6 5 4 6 8 4 4 7 11 10 3 2 7 12 19 24 25 27 28 30 30 32 33 34 33 33 33 32 34 34 36 38 35 36 35 39
15 12 14 22 11 7 10 13 14 9 12 7 13 16 18 16 13 9 11 11 14 16 18 19 20 22 25 27 28 30 32 34 35 35 32 29 31 28 35 37 35 34 36 35
8 24 9 23 26 23 22 11 9 7 10 8 14 9 7 5 6 7 9 8 9 11 14 16 17 20 23 25 27 30 32 34 36 36 32 30 28 24 27 30 33 34 37 34
12 20 3 5 17 21 27 23 19 16 11 10 10 9 7 4 1 5 5 6 7 8 10 11 14 18 20 22 25 28 30 33 35 35 32 30 26 24 25 27 34 36 41 31
7 11 2 22 23 15 11 21 20 16 6 7 5 1 0 2 3 4 5 6 8 9 11 14 16 19 21 23 23 24 26 25 27 29 26 26 24 23 24 31 38 36 38 39
5 3 5 18 15 1 3 18 16 14 7 4 5 5 4 5 7 9 10 10 11 13 12 14 17 18 22 24 28 28 30 26 23 20 21 26 28 24 22 27 41 40 37 35
10 3 1 21 14 3 4 6 12 11 9 4 3 5 7 9 9 10 10 10 8 10 10 11 14 18 22 24 26 30 29 29 24 20 22 26 28 26 30 34 42 42 33 38
7 4 4 16 9 4 3 6 11 13 10 6 6 8 9 10 11 11 11 11 10 9 9 11 14 16 21 23 24 27 30 30 29 22 17 25 29 29 30 34 36 34 31 41
2 2 8 13 6 2 4 8 13 14 13 10 7 7 9 10 11 11 12 12 12 13 11 13 15 18 21 20 21 25 25 29 30 33 16 18 27 29 36 34 32 38 32 38
2 7 10 7 5 6 9 11 11 11 12 12 11 8 8 9 10 11 12 12 12 14 15 15 17 19 20 20 17 21 27 27 26 31 26 12 16 29 41 36 37 36 31 41
4 10 10 8 8 7 8 9 10 9 11 12 12 12 9 8 10 10 11 12 12 13 15 15 16 17 17 18 17 16 18 26 25 25 30 19 6 16 31 38 40 40 41 33
5 7 7 9 9 8 8 8 10 11 11 12 11 10 9 9 9 11 12 12 12 12 13 14 14 15 16 16 16 14 13 13 22 23 25 27 22 6 9 18 25 26 30 26
4 6 8 10 12 12 12 11 11 11 12 12 12 12 12 12 11 12 14 14 12 11 12 13 13 13 13 14 13 12 12 10 9 13 19 21 21 22 16 8 6 9 14 20
7 9 11 11 11 11 13 11 9 9 10 11 12 12 12 12 12 11 14 13 11 11 11 11 12 13 12 12 11 10 10 10 8 7 7 9 11 14 17 16 14 11 7 5
11 15 16 15 14 12 13 11 11 10 10 11 11 11 10 10 9 10 15 14 13 13 12 12 12 12 12 11 10 9 8 8 7 5 4 5 5 6 5 5 6 6 6 5
17 17 15 14 13 13 15 15 15 16 14 12 12 11 11 11 12 14 16 16 15 14 14 14 14 13 12 11 10 9 9 8 6 4 3 3 3 3 3 3 4 3 3 3
17 17 15 15 14 13 15 17 16 16 15 15 13 13 13 13 12 13 15 15 14 15 14 14 15 15 13 11 11 9 8 7 7 6 4 3 2 1 0 0 2 3 3 3
15 15 14 14 14 15 15 14 15 16 16 16 16 15 15 15 15 14 15 15 16 17 17 16 15 15 15 14 12 11 9 8 8 8 7 6 5 5 5 5 4 4 3 3
12 12 13 14 14 14 15 15 15 16 18 18 17 17 17 17 16 17 17 17 16 17 17 17 16 15 15 15 15 13 11 10 9 8 8 8 8 8 7 7 8 8 8 8
11 12 13 13 13 14 14 15 15 16 17 17 17 17 16 16 15 17 16 16 16 16 15 16 16 16 15 14 15 15 14 13 12 12 11 10 10 10 9 9 9 9 10 9
9 10 11 11 11 12 12 12 13 14 14 14 14 14 13 13 13 14 15 16 15 15 15 15 15 15 15 15 14 14 14 14 14 13 13 13 13 12 12 11 11 11 11 11
8 9 9 10 10 11 11 12 12 13 13 14 13 14 14 14 14 13 14 14 14 14 14 13 14 14 14 14 14 14 13 13 14 14 14 14 14 13 13 14 14 14 13 13
5 6 7 8 9 10 11 12 13 13 14 14 14 13 15 14 14 14 14 14 13 13 13 13 13 13 13 13 13 12 12 12 12 13 13 14 13 13 12 12 12 13 14 14
6 7 9 10 9 11 11 12 12 13 13 14 15 15 14 14 14 14 14 15 15 14 14 14 14 14 13 13 13 12 12 12 11 11 11 11 11 12 11 11 11 12 13 12
8 10 10 10 10 10 12 13 12 12 12 13 14 14 15 15 15 14 13 13 14 14 14 14 14 14 14 14 13 13 13 12 12 11 11 11 11 11 12 12 12 12 12 13
7 7 8 8 9 11 12 12 14 15 15 15 15 14 14 14 14 14 14 14 14 14 13 12 13 13 13 13 14 13 13 13 12 13 13 13 12 12 12 12 12 12 13 14
7 7 7 10 12 14 14 15 16 18 18 17 16 15 15 15 15 14 14 14 13 13 13 13 12 12 11 12 13 13 13 13 13 14 14 14 14 14 14 14 14 14 15 15

GFSNGP_700_spd_123.txt.gz
Wind_Speed
19 7 24 10 9 6 12 12 3 10 13 13 19 19 18 21 16 7 7 14 13 7 10 7 13 20 26 27 29 29 30 31 32 33 33 33 32 33 35 37 38 35 40 42
1 13 8 32 25 13 9 14 11 10 16 10 10 10 12 17 20 15 15 11 6 2 3 7 12 14 16 20 24 25 27 29 31 33 35 34 34 35 35 34 34 32 35 34
7 18 4 10 22 25 24 12 5 9 11 8 9 10 10 11 12 14 11 11 7 6 5 5 7 10 12 15 18 22 25 28 31 34 35 36 35 34 35 33 32 35 43 40
9 10 4 7 17 9 17 21 19 13 11 9 9 12 14 12 11 9 7 6 6 5 5 7 8 10 12 15 18 21 24 27 30 33 35 36 35 35 35 33 31 31 37 39
6 6 2 11 17 9 11 21 19 11 4 3 7 8 8 9 8 9 10 8 6 5 5 7 9 11 13 15 19 22 25 28 29 29 30 33 35 34 33 30 27 33 32 37
6 3 2 16 8 1 4 12 16 16 13 8 6 4 7 8 9 10 10 9 9 9 9 9 9 11 13 16 18 22 25 28 29 32 29 26 30 31 28 31 25 23 26 34
7 1 2 17 11 1 3 5 12 14 13 8 8 9 9 9 9 9 10 11 12 12 12 11 12 15 17 19 19 22 27 27 29 29 34 29 25 26 27 28 27 22 28 38
5 3 3 14 6 2 1 6 12 14 14 11 9 10 10 10 9 9 10 11 11 12 13 14 15 16 18 20 20 20 27 29 31 30 35 34 25 26 27 29 27 29 30 35
2 3 9 11 8 4 6 11 15 17 17 13 11 10 11 11 11 10 9 10 11 12 14 13 13 15 17 19 21 19 21 29 31 31 33 39 23 22 23 26 27 24 29 29
4 5 10 8 9 10 10 12 12 14 15 15 14 12 11 13 14 13 12 12 12 12 14 15 16 17 18 19 19 20 20 20 29 31 30 35 29 14 17 25 27 27 38 38
6 6 6 6 8 9 10 11 11 11 13 14 16 16 14 12 12 14 14 14 14 15 15 16 17 17 18 19 19 20 20 19 19 27 29 30 35 24 14 13 22 35 41 32
5 5 6 7 8 8 9 10 11 12 12 13 14 16 16 16 15 14 16 16 15 15 15 16 16 16 17 17 17 18 18 18 18 18 25 26 29 31 17 9 4 15 24 33
5 6 8 10 12 13 13 10 10 12 14 14 13 15 16 15 16 15 16 17 16 15 14 15 15 14 14 15 15 16 17 16 15 16 16 19 22 23 26 22 12 2 5 8
9 10 11 13 14 14 15 14 11 11 12 14 14 15 16 14 14 14 15 16 16 16 16 16 16 14 13 12 13 13 14 15 14 13 13 14 15 17 19 19 19 19 15 10
12 12 15 17 16 14 15 15 15 16 17 17 16 16 16 14 13 13 14 15 16 18 18 18 17 16 13 12 13 13 12 12 12 11 11 11 11 11 11 12 13 14 15 13
14 17 16 16 15 16 17 17 18 18 19 19 18 18 17 16 15 14 15 16 17 18 18 18 17 16 14 12 12 13 13 12 10 10 9 8 9 9 9 9 8 9 10 9
17 16 16 15 15 15 16 17 18 17 17 18 18 18 17 17 17 17 17 18 19 20 19 19 19 17 15 14 12 11 11 12 11 9 9 8 7 7 7 7 8 8 6 4
16 16 15 14 14 16 17 18 18 18 18 17 17 18 18 18 19 20 20 20 21 21 21 20 19 19 18 16 14 13 11 11 11 10 9 9 9 8 8 7 7 6 6 7
13 13 13 14 14 16 17 17 18 19 18 18 18 17 18 19 19 20 20 21 21 20 20 20 20 19 18 17 16 15 13 12 12 11 11 11 11 11 10 10 10 9 8 7
10 10 10 11 12 14 17 18 18 18 18 17 16 16 17 17 18 18 18 18 18 18 18 19 20 19 18 18 18 17 16 14 13 13 13 12 13 13 12 12 12 11 11 10
10 10 9 10 10 12 12 14 15 16 17 17 17 17 16 16 16 17 17 17 18 18 17 17 18 18 17 17 17 17 17 17 16 15 15 15 15 15 15 14 14 13 13 13
6 6 7 8 9 10 11 12 13 14 15 16 17 18 18 18 18 18 18 18 17 17 17 18 18 17 17 17 17 17 17 17 17 17 16 15 16 16 15 15 15 14 14 14
3 3 4 6 9 11 13 13 14 13 14 15 16 17 19 19 19 19 19 19 18 18 17 17 17 17 17 17 16 16 16 16 16 16 16 15 15 14 15 15 15 14 13 13
1 4 7 9 9 11 13 15 15 15 15 15 15 16 17 17 17 18 18 18 18 18 18 18 18 18 18 17 17 16 16 15 15 14 14 14 14 14 14 13 13 13 13 13
3 5 5 6 8 10 12 14 14 15 16 17 17 17 17 17 17 17 17 17 17 17 17 17 18 18 17 17 17 17 16 16 15 14 13 13 13 13 14 14 13 13 13 12
3 5 5 6 7 8 10 11 11 11 13 14 15 16 17 17 17 17 17 17 17 17 17 17 18 18 18 17 17 16 16 16 16 16 15 15 14 13 13 13 14 14 14 14
5 6 6 6 6 8 9 9 10 11 12 13 14 15 16 16 17 17 17 17 17 17 18 18 18 18 18 18 18 17 17 17 16 16 16 15 15 15 14 14 15 16 16 16